Hourly Data Report for September 05, 2017

All times are specified in Local Standard Time (LST). Add 1 hour to adjust for Daylight Saving Time where and when it is observed.

MIRAMICHI RCS
NEW BRUNSWICK

47°00'34.000" N
65°27'54.000" W
33.00 m
8100989
71744
ACQ

Download Data

Hourly Data (September 2017)
Hourly Data Report for September 5, 2017
Temp Definition
°C
Dew Point Temp Definition
°C
Rel Hum Definition
%
Wind Dir Definition
10's deg

Wind Spd Definition
km/h
Visibility Definition
km
Stn Press Definition
kPa
Hmdx Definition


Wind Chill Definition


Weather Definition


TIME
00:00 16.9 12.3 74 22 18   100.15     LegendNANA
01:00 16.8 12.4 75 22 20   100.13     LegendNANA
02:00 15.9 12.3 80 22 16   100.13     LegendNANA
03:00 15.6 12.4 82 22 15   100.11     LegendNANA
04:00 15.3 12.5 83 22 16   100.09     LegendNANA
05:00 15.8 12.8 82 22 14   100.05     LegendNANA
06:00 15.5 13.1 86 20 8   100.08     LegendNANA
07:00 16.4 13.8 84 20 17   100.04     LegendNANA
08:00 18.0 14.2 79 22 25   100.08     LegendNANA
09:00 19.1 14.5 75 21 26   100.05     LegendNANA
10:00 20.3 14.8 71 22 27   100.06     LegendNANA
11:00 21.8 15.0 65 22 32   100.07 26   LegendNANA
12:00 23.5 15.6 61 22 31   100.09 28   LegendNANA
13:00 24.4 16.1 60 22 32   100.11 29   LegendNANA
14:00 24.4 16.0 60 24 27   100.13 29   LegendNANA
15:00 24.5 16.6 61 24 19   100.18 30   LegendNANA
16:00 24.4 16.9 63 22 16   100.21 30   LegendNANA
17:00 23.8 17.1 66 20 20   100.28 29   LegendNANA
18:00 22.0 16.7 72 19 22   100.36 27   LegendNANA
19:00 19.9 16.2 79 20 16   100.42     LegendNANA
20:00 19.2 16.3 84 20 12   100.49     LegendNANA
21:00 18.4 16.2 88 22 10   100.54     LegendNANA
22:00 18.6 16.5 88 23 14   100.58     LegendNANA
23:00 18.7 16.5 87 20 20   100.51     LegendNANA

Notes on Data Quality.

Legend

  • E = Estimated
  • M = Missing
  • NA = Not Available
  • ‡ = Partner data that is not subject to review by the National Climate Archives
Date modified: